Location: Caltech
(34.1382°N, 118.1253°W)
Time: 19:49:45
(UTC-07:00)

COSMOS 2428 - Visible Passes

Search period start: 21 July 2017 00:00
Search period end: 31 July 2017 00:00
Orbit: 843 x 860 km, 70.9° (Epoch: 21 July)

Date Brightness Start Highest point End Pass type
(mag) Time Alt. Az. Time Alt. Az. Time Alt. Az.
21 Jul 5.0 03:01:52 11° SE 03:04:36 15° E 03:07:38 10° ENE visible
21 Jul 2.8 04:43:55 18° SW 04:48:13 62° WNW 04:53:55 10° NNE visible
22 Jul 4.9 02:50:30 13° ESE 02:52:29 15° E 02:55:32 10° ENE visible
22 Jul 2.8 04:32:33 23° SW 04:36:07 62° WNW 04:41:49 10° NNE visible
23 Jul 4.9 02:39:05 14° ESE 02:40:22 15° E 02:43:26 10° ENE visible
23 Jul 2.8 04:21:08 29° SW 04:24:00 61° WNW 04:29:43 10° NNE visible
24 Jul 4.9 02:27:37 15° ESE 02:28:16 15° E 02:31:20 10° ENE visible
24 Jul 2.8 04:09:40 36° SW 04:11:54 61° WNW 04:17:36 10° NNE visible
25 Jul 4.9 02:16:07 15° E 02:16:09 15° E 02:19:14 10° ENE visible
25 Jul 2.8 03:58:09 44° SW 03:59:46 61° WNW 04:05:29 10° NNE visible
26 Jul 4.9 02:04:34 15° E 02:04:34 15° E 02:07:08 10° ENE visible
26 Jul 2.8 03:46:36 51° WSW 03:47:40 61° WNW 03:53:22 10° NNE visible
27 Jul 5.0 01:52:58 14° E 01:52:58 14° E 01:55:02 10° ENE visible
27 Jul 2.8 03:35:00 58° W 03:35:34 61° WNW 03:41:16 10° NNE visible
28 Jul 5.1 01:41:21 14° E 01:41:21 14° E 01:42:56 10° ENE visible
28 Jul 2.8 03:23:22 61° WNW 03:23:27 61° WNW 03:29:09 10° NNE visible
29 Jul 5.1 01:29:41 13° ENE 01:29:41 13° ENE 01:30:50 10° ENE visible
29 Jul 2.9 03:11:42 59° NW 03:11:42 59° NW 03:17:02 10° NNE visible
30 Jul 5.2 01:17:59 12° ENE 01:17:59 12° ENE 01:18:43 10° ENE visible
30 Jul 3.1 03:00:00 55° NNW 03:00:00 55° NNW 03:04:55 10° NNE visible
